Weather in Murino

Russia / Saint-Petersburg and Leningrad Oblast     60°02′44″N   30°26′54″E
temp.,
°C
wind,
m/s
gust,
m/s
humid.,
%
clouds,
%
prec.,
mm/h
press.,
hPa
HPBL,
m
12 may, wed
wed1200:00+13sse26835 0.0 1023108
03:00+11sse27871 0.0 1023130
06:00+12sse28830 0.0 1023172
09:00+18s36560 0.0 1023427
12:00+22s46470 0.0 10221055
15:00+25s46401 0.0 10211740
18:00+24s35450 0.0 10211722
21:00+18sse11680 0.0 102011
13 may, thu
thu1300:00+16ne227388 0.0 101933
03:00+14e25800 0.0 101880
06:00+14ese312815 0.0 1017380
09:00+18se476779 0.0 1017969
12:00+18sse4761100 0.1 10161610
15:00+21sse56345 0.1 10152235
18:00+21se35355 0.0 10142207
21:00+15e225969 0.0 101318
14 may, fri
fri1400:00+14ne226293 0.0 101244
03:00+13e1285100 0.6 101142
06:00+12w1395100 2.2 101098
09:00+13ssw1390100 2.3 1011206
12:00+17ssw246646 0.1 10111100
15:00+20ssw35402 0.5 10111868
18:00+19s45516 0.0 10111471
21:00+14sse2574100 0.0 101194
15 may, sat
sat1500:00+12se228199 0.0 101121
03:00+11e258515 0.0 101193
06:00+12e31082100 0.0 1009256
09:00+14e41178100 0.8 1008506
12:00+16ese5978100 1.1 1007802
15:00+16ene3689100 3.1 1006473
18:00+16ene128696 0.4 1005320
21:00+13ne11945 0.5 100411
16 may, sun
sun1600:00+12wsw1196100 0.0 100411
03:00+11wsw2297100 0.0 100435
06:00+11wsw2697100 0.0 1005171
09:00+9w41096100 0.0 1007350
12:00+12w4988100 0.0 1009628
15:00+13wnw5977100 0.1 1011539
18:00+14w5106632 0.0 1012621
21:00+10w311790 0.0 1014316